Other Public Products
Issued by NWS Charleston, SC

Current Version | Previous Version | Graphics & Text | Print | Product List | Glossary On
Versions: 1 2 3 4 5 6 7 8 9 10 11 12 13 14 15 16 17 18 19 20 21 22 23 24 25 26 27 28 29 30 31 32 33 34 35 36 37 38 39 40 41 42 43 44 45 46 47 48 49 50
000
FPUS82 KCHS 190012
OPUCHS

TEST...KCHS/KSAV Gateway Observations...TEST
National Weather Service Charleston SC
700 PM EST WED JAN 18 2017

NOTE: "fair" indicates few or no clouds below 12,000 feet with no
significant weather and/or obstructions to visibility.

SCZ050-WAZ558-NCZ071-TXZ119-213-PAZ071-DCZ001-FLZ074-172-MI076-
NYZ176-178-MAZ016-IL014-TNZ027-NJZ106-GAZ044-MD014-190100-
...Gateway Observations for Charleston International...

CITY           SKY/WX    TMP DP  RH WIND       PRES   REMARKS
Chas Airport   CLEAR     71  58  63 W6        30.00R
6HR MIN TEMP:  71; 6HR MAX TEMP:  79;

Seattle        LGT RAIN  48  44  86 E12       29.30S FOG
6HR MIN TEMP:  47; 6HR MAX TEMP:  53; 6HR PCP:  0.04;

Charlotte      MOCLDY    63  19  18 NW7       30.03R
6HR MIN TEMP:  56; 6HR MAX TEMP:  75;

Dallas DFW     CLOUDY    54  50  86 N3        29.99F
6HR MIN TEMP:  50; 6HR MAX TEMP:  54; 6HR PCP: TRACE;

Dallas Love    CLOUDY    53  49  86 N5        30.00F
6HR MIN TEMP:  49; 6HR MAX TEMP:  53; 6HR PCP: TRACE;

Philladelphia  CLOUDY    47  39  74 N13       30.05R
6HR MIN TEMP:  47; 6HR MAX TEMP:  49;

Wash National  PTCLDY    50  36  58 NW15      30.06R
6HR MIN TEMP:  50; 6HR MAX TEMP:  60;

Baltimore      MOCLDY    50  37  61 NW8       30.04R
6HR MIN TEMP:  50; 6HR MAX TEMP:  57;

Miami          MOCLDY    75  63  66 SE6       30.13R
6HR MIN TEMP:  75; 6HR MAX TEMP:  83;

Detroit        CLOUDY    38  35  89 SW10      30.06F WCI  31
6HR MIN TEMP:  38; 6HR MAX TEMP:  43;

Newark         CLOUDY    42  37  82 N9        30.05R
6HR MIN TEMP:  41; 6HR MAX TEMP:  42;

Laguardia      CLOUDY    42  37  82 N9        30.04R
6HR MIN TEMP:  42; 6HR MAX TEMP:  45;

J F K          CLOUDY    42  36  79 N12       30.04R
6HR MIN TEMP:  41; 6HR MAX TEMP:  42;

Boston Logan   MIX PCPN  34  34 100 N12       30.05R FOG     WCI  25
6HR MIN TEMP:  34; 6HR MAX TEMP:  40; 6HR PCP:  0.06;

Ft. Lauderdale MOCLDY    75  64  68 SE6       30.12R
6HR MIN TEMP:  74; 6HR MAX TEMP:  79;

Chicago O`Hare CLOUDY    35  31  85 SW8       30.08R WCI  29
6HR MIN TEMP:  34; 6HR MAX TEMP:  36;

Chicago Midway CLOUDY    35  31  85 SW10      30.10R WCI  27
6HR MIN TEMP:  33; 6HR MAX TEMP:  36;

Houston Bush   CLOUDY    63  59  87 NW5       29.97S
6HR MIN TEMP:  61; 6HR MAX TEMP:  74; 6HR PCP: TRACE;

Houston Hobby  CLOUDY    64  63  96 SW5       29.97R
6HR MIN TEMP:  64; 6HR MAX TEMP:  77; 6HR PCP:  0.56;

Nashville      CLOUDY    47  40  76 SE3       30.14F
6HR MIN TEMP:  47; 6HR MAX TEMP:  50;

Atlanta        PTCLDY    64  51  62 W9        30.09R
6HR MIN TEMP:  64; 6HR MAX TEMP:  71;


$$

GAZ044-118-TXZ119-213-NCZ071-DCZ001-MDZ014-506-PAZ021-071-NJZ106-
NYZ176-178-MAZ106-OHZ011-021-055-MIZ076-KYZ091-ILZ014-INZ047-
MNZ060-190100-
...Gateway Observations for Savannah International...

CITY           SKY/WX    TMP DP  RH WIND       PRES   REMARKS
Savannah Arpt  PTCLDY    70  57  63 SW8       30.05S
6HR MIN TEMP:  70; 6HR MAX TEMP:  78;

Atlanta        PTCLDY    64  51  62 W9        30.09R
6HR MIN TEMP:  64; 6HR MAX TEMP:  71;

Charlotte      MOCLDY    63  19  18 NW7       30.03R
6HR MIN TEMP:  56; 6HR MAX TEMP:  75;

Dallas DFW     CLOUDY    54  50  86 N3        29.99F
6HR MIN TEMP:  50; 6HR MAX TEMP:  54; 6HR PCP: TRACE;

Houston Bush   CLOUDY    63  59  87 NW5       29.97S
6HR MIN TEMP:  61; 6HR MAX TEMP:  74; 6HR PCP: TRACE;

Wash National  PTCLDY    50  36  58 NW15      30.06R
6HR MIN TEMP:  50; 6HR MAX TEMP:  60;

Wash Dulles    PTCLDY    47  34  60 N9        30.07R
6HR MIN TEMP:  47; 6HR MAX TEMP:  57;

Baltimore      MOCLDY    50  37  61 NW8       30.04R
6HR MIN TEMP:  50; 6HR MAX TEMP:  57;

Philadelphia   CLOUDY    47  39  74 N13       30.05R
6HR MIN TEMP:  47; 6HR MAX TEMP:  49;

Newark         CLOUDY    42  37  82 N9        30.05R
6HR MIN TEMP:  41; 6HR MAX TEMP:  42;

Laguardia      CLOUDY    42  37  82 N9        30.04R
6HR MIN TEMP:  42; 6HR MAX TEMP:  45;

J F K          CLOUDY    42  36  79 N12       30.04R
6HR MIN TEMP:  41; 6HR MAX TEMP:  42;

Boston         MIX PCPN  34  34 100 N12       30.05R FOG     WCI  25
6HR MIN TEMP:  34; 6HR MAX TEMP:  40; 6HR PCP:  0.06;

Pittsburg      CLOUDY    39  35  86 W5        30.09S WCI  36
6HR MIN TEMP:  39; 6HR MAX TEMP:  40;

Akron          CLOUDY    39  34  82 SW10      30.09S WCI  32
6HR MIN TEMP:  38; 6HR MAX TEMP:  40;

Cleveland      DRIZZLE   40  36  86 SW7       30.11F WCI  35
6HR MIN TEMP:  39; 6HR MAX TEMP:  41; 6HR PCP: TRACE;

Cincinnati     CLOUDY    40  36  86 SW5       30.13R WCI  37
6HR MIN TEMP:  40; 6HR MAX TEMP:  42;

Columbus         N/A     38  36  91 W9        30.14R WCI  32
Detroit        CLOUDY    38  35  89 SW10      30.06F WCI  31
6HR MIN TEMP:  38; 6HR MAX TEMP:  43;

Chicago O`Hare CLOUDY    35  31  85 SW8       30.08R WCI  29
6HR MIN TEMP:  34; 6HR MAX TEMP:  36;

Minneapolis    CLEAR     37  30  75 S6        29.86S WCI  32
6HR MIN TEMP:  36; 6HR MAX TEMP:  41;

Indianapolis   CLOUDY    37  35  92 SW8       30.13S WCI  31
6HR MIN TEMP:  37; 6HR MAX TEMP:  39; 6HR PCP: TRACE;


$$




USA.gov is the U.S. government's official web portal to all federal, state and local government web resources and services.